EHI
0 1 0 0 0 0 0 0 0 0 0 0 0 0 0 0 0 0 0 0 0 0 0 0 0 0 0 0 0 0 0 0 0 0 0 0 0 0 0 0 0 0 0
1 1 0 0 0 0 0 0 0 0 0 0 0 0 0 0 0 0 0 0 0 0 0 0 0 0 0 0 0 0 0 0 0 0 0 0 0 0 0 0 0 0 0
0 0 0 0 0 0 0 0 0 0 0 0 0 0 0 0 0 0 0 0 0 0 0 0 0 0 0 0 0 0 0 0 0 0 0 0 0 0 0 0 0 0 0
0 0 0 0 0 0 0 0 0 0 0 0 0 0 0 0 0 0 0 0 0 0 0 0 0 0 0 0 0 0 0 0 0 0 0 0 0 0 0 0 0 0 0
0 0 0 0 0 0 0 0 0 0 0 0 0 0 0 0 0 0 0 0 0 0 0 0 0 0 0 0 0 0 0 0 0 0 0 0 0 0 0 0 0 0 0
0 0 0 0 0 0 0 0 0 0 0 0 0 0 0 0 0 0 0 0 0 0 0 0 0 0 0 0 0 0 0 0 0 0 0 0 0 0 0 0 0 0 0
0 0 0 0 0 0 0 0 0 0 0 0 0 0 0 0 0 0 0 0 0 0 0 0 0 0 0 0 0 0 0 0 0 0 0 0 0 0 0 0 0 0 0
0 0 0 0 0 0 0 0 0 0 0 0 0 0 0 0 0 0 0 0 0 0 0 0 0 0 0 0 0 0 0 0 0 0 0 0 0 0 0 0 0 0 0
0 0 0 0 0 0 0 0 0 0 0 0 0 0 0 0 0 0 0 0 0 0 0 0 0 0 0 0 0 0 0 0 0 0 0 0 0 0 0 0 0 0 0
0 0 0 0 0 0 0 0 0 0 0 0 0 0 0 0 0 0 0 0 0 0 0 0 0 0 0 0 0 0 0 0 0 0 0 0 0 0 0 0 0 0 0
0 0 0 0 0 0 0 0 0 0 0 0 0 0 0 0 0 0 0 0 0 0 0 0 0 0 0 0 0 0 0 0 0 0 0 0 0 0 0 0 0 0 0
0 0 0 0 0 0 0 0 0 0 0 0 0 0 0 0 0 0 0 0 0 0 0 0 0 0 0 0 0 0 0 0 0 0 0 0 0 0 0 0 0 0 0
0 0 0 0 0 0 0 0 0 0 0 0 0 0 0 0 0 0 0 0 0 0 0 0 0 0 0 0 0 0 0 0 0 0 0 0 0 0 0 0 0 0 0
0 0 0 0 0 0 0 0 0 0 0 0 0 0 0 0 0 0 0 0 0 0 0 0 0 0 0 0 0 0 0 0 0 0 0 0 0 0 0 0 0 0 0
0 0 0 0 0 0 0 0 0 0 0 0 0 0 0 0 0 0 0 0 0 0 0 0 0 0 0 0 0 0 0 0 0 0 0 0 0 0 0 0 0 0 0
0 0 0 0 0 0 0 0 0 0 0 0 0 0 0 0 0 0 0 0 0 0 0 0 0 0 0 0 0 0 0 0 0 0 0 0 0 0 0 0 0 0 0
0 0 0 0 0 0 0 0 0 0 0 0 0 0 0 0 0 0 0 0 0 0 0 0 0 0 0 0 0 0 0 0 0 0 0 0 0 0 0 0 0 0 0
0 0 0 0 0 0 0 0 0 0 0 0 0 0 0 0 0 0 0 0 0 0 0 0 0 0 0 0 0 0 0 0 0 0 0 0 0 0 0 0 0 0 0
0 0 0 0 0 0 0 0 0 0 0 0 0 0 0 0 0 0 0 0 0 0 0 0 0 0 0 0 0 0 0 0 0 0 0 0 0 0 0 0 0 0 0
0 0 0 0 0 0 0 0 0 0 0 0 0 0 0 0 0 0 0 0 0 0 0 0 0 0 0 0 0 0 0 0 0 0 0 0 0 0 0 0 0 0 0
0 0 0 0 0 0 0 0 0 0 0 0 0 0 0 0 0 0 0 0 0 0 0 0 0 0 0 0 0 0 0 0 0 0 0 0 0 0 0 0 0 0 0
0 0 0 0 0 0 0 0 0 0 0 0 0 0 0 0 0 0 0 0 0 0 0 0 0 0 0 0 0 0 0 0 0 0 0 0 0 0 0 0 0 0 0
0 0 0 0 0 0 0 0 0 0 0 0 0 0 0 0 0 0 0 0 0 0 0 0 0 0 0 0 0 0 0 0 0 0 0 0 0 0 0 0 0 0 0
0 0 0 0 0 0 0 0 0 0 0 0 0 0 0 0 0 0 0 0 0 0 0 0 0 0 0 0 0 0 0 0 0 0 0 0 0 0 0 0 0 0 0
0 0 0 0 0 0 0 0 0 0 0 0 0 0 0 0 0 0 0 0 0 0 0 0 0 0 0 0 0 0 0 0 0 0 0 0 0 0 0 0 0 0 0
0 0 0 0 0 0 0 0 0 0 0 0 0 0 0 0 0 0 0 0 0 0 0 0 0 0 0 0 0 0 0 0 0 0 0 0 0 0 0 0 0 0 0
Wind_Speed
7 7 6 6 5 4 5 5 4 5 4 4 4 4 4 4 4 4 3 7 7 6 5 3 2 2 3 3 2 2 2 1 1 1 1 1 1 1 1 2 3 3 4
8 8 7 7 6 6 5 5 6 5 4 3 4 4 4 4 4 4 3 4 6 5 4 3 2 1 2 2 2 1 0 1 1 1 1 1 1 2 2 3 4 4 5
9 8 8 8 7 6 6 5 5 4 4 4 4 4 3 4 4 4 4 3 3 4 4 3 2 1 1 1 1 0 0 1 1 1 1 2 2 2 3 4 4 5 5
11 9 8 8 7 6 6 6 5 4 4 3 3 3 3 3 4 4 3 3 2 2 2 2 1 0 0 1 0 1 1 2 2 2 2 2 2 2 3 4 5 5 6
12 9 8 7 8 7 6 7 5 4 4 4 3 2 2 3 3 4 4 4 3 3 2 2 2 2 1 1 1 1 2 3 3 3 3 3 3 3 4 4 5 6 6
11 9 8 8 8 7 6 6 5 4 4 4 3 2 1 2 2 3 3 3 3 4 3 3 2 2 3 2 2 2 2 3 3 3 3 3 3 4 4 5 5 6 7
9 9 7 9 9 8 8 8 5 5 3 3 3 1 1 0 1 2 2 3 3 3 4 3 2 2 2 5 4 4 3 3 3 2 2 3 3 4 5 5 5 6 7
9 8 8 8 8 7 8 8 5 4 3 4 4 3 1 1 1 1 2 3 3 3 3 4 4 3 3 2 3 5 4 3 2 1 2 2 3 3 4 5 6 6 7
9 8 8 8 8 8 8 8 8 8 5 4 4 5 5 4 2 0 1 2 3 3 3 3 4 4 4 3 2 4 5 4 2 2 2 2 3 4 4 5 6 7 7
9 8 8 7 7 6 7 8 8 6 7 5 3 2 3 4 4 2 0 1 2 3 3 3 4 4 4 3 3 4 5 4 3 3 3 4 5 5 5 6 7 7 7
8 8 8 8 7 6 7 8 7 7 6 6 5 3 2 2 2 4 3 2 1 1 2 3 3 3 4 3 2 3 4 4 4 4 4 4 6 6 6 6 7 7 8
5 7 8 8 8 7 7 8 8 9 7 6 5 4 4 4 4 4 4 3 2 1 1 2 3 4 3 3 3 5 5 5 4 4 5 6 7 6 7 7 7 8 8
4 7 7 7 7 6 7 6 7 8 8 8 7 5 4 4 3 4 4 3 3 2 2 1 2 3 4 3 3 5 5 5 4 4 5 6 6 6 6 6 7 8 9
4 6 6 7 7 7 6 6 5 6 6 7 7 6 4 4 4 4 5 5 3 2 2 3 1 2 3 3 4 5 3 4 4 4 5 5 5 5 6 6 7 8 9
3 4 5 6 6 6 6 7 5 6 6 6 6 7 5 4 4 4 4 5 6 5 5 4 3 2 3 3 5 3 3 4 4 4 4 3 3 4 4 6 6 7 8
2 3 4 5 5 6 6 6 5 6 7 6 5 6 6 4 4 4 4 4 4 5 4 3 3 3 4 3 6 4 3 4 3 3 3 2 2 2 3 5 6 7 8
1 3 4 4 5 5 6 6 7 7 8 7 6 7 7 6 5 5 4 4 4 4 4 2 2 3 4 5 4 3 2 2 1 4 3 2 1 1 2 4 5 6 7
0 1 2 3 4 5 5 6 7 7 8 8 8 8 8 6 7 6 5 6 5 4 5 5 3 3 3 5 4 3 2 2 2 4 4 3 2 0 1 3 4 5 6
2 1 1 2 3 4 5 5 6 7 8 8 8 9 9 9 8 6 7 6 5 4 3 4 4 2 2 3 3 2 2 1 2 3 4 4 3 2 1 2 3 4 5
3 3 2 2 2 3 4 4 5 5 6 6 7 7 8 9 10 9 7 7 6 5 5 4 4 3 3 3 3 3 2 2 1 1 2 2 2 1 2 1 2 3 5
4 3 3 2 2 2 3 3 4 5 6 6 6 6 7 9 10 9 7 8 8 7 6 5 4 4 4 4 4 3 3 2 1 1 1 1 0 0 1 2 2 2 3
5 5 4 3 3 2 4 4 4 4 4 6 6 5 5 8 10 12 12 13 12 10 8 6 5 6 6 5 4 4 4 3 2 2 2 1 1 1 1 1 2 1 2
5 5 5 4 4 4 5 5 5 3 4 5 6 5 4 5 8 7 9 11 11 12 12 8 7 7 7 7 7 5 4 4 3 3 3 2 1 2 2 2 3 2 1
4 5 5 5 5 5 7 6 5 3 3 4 5 6 6 6 7 8 7 6 5 6 7 6 6 6 6 7 7 7 6 4 2 1 3 2 2 2 1 1 3 2 1
5 5 5 5 6 6 7 7 5 2 3 4 5 6 7 7 11 12 8 7 5 3 5 8 8 8 10 11 9 6 6 4 2 2 2 3 2 1 1 1 2 2 2
5 5 6 5 6 6 9 9 6 2 3 3 3 5 9 10 13 14 9 9 9 6 5 5 5 7 6 8 12 7 7 5 3 3 3 3 2 2 1 1 1 1 1
Wind_Direction
167 167 167 167 168 166 169 171 175 181 193 204 207 203 204 198 186 181 186 192 191 191 190 197 221 249 245 245 257 269 255 228 195 180 138 84 47 2 341 347 342 334 329
172 172 173 174 177 179 179 179 183 185 193 196 206 204 201 191 180 174 177 191 197 195 194 196 213 258 256 257 261 254 126 145 145 112 83 69 45 24 356 343 336 329 321
177 177 177 181 184 182 180 176 184 181 189 195 202 199 187 182 171 172 172 176 186 200 198 194 202 257 278 291 259 189 132 111 92 87 82 55 44 30 12 357 344 331 321
179 179 181 185 183 180 181 180 181 180 188 186 187 185 171 164 165 167 165 169 169 165 184 181 178 217 352 359 33 105 72 85 80 69 64 57 34 13 354 341 334 324 318
183 181 183 185 179 182 185 186 181 175 176 178 175 168 165 162 165 158 159 167 166 159 156 141 123 85 75 47 26 96 88 89 85 77 63 52 26 4 349 345 340 332 319
185 182 180 182 177 180 185 185 176 174 169 165 153 142 156 170 164 164 166 161 161 160 153 136 118 84 75 75 67 81 86 98 93 77 52 33 12 358 341 338 336 333 328
185 184 183 180 179 183 188 182 170 170 168 147 121 103 16 26 169 178 166 158 157 156 147 140 128 107 75 70 64 63 79 91 92 67 39 14 359 347 340 340 340 339 339
186 187 186 184 184 182 182 180 167 164 168 164 145 135 163 310 280 197 175 168 160 143 137 135 129 124 106 83 64 62 66 64 52 30 6 358 2 355 350 354 352 352 352
189 187 190 187 187 186 189 185 181 175 175 184 172 158 164 201 207 233 205 174 159 145 139 133 132 129 120 102 78 59 60 42 20 356 344 359 22 20 15 8 2 358 355
187 189 194 193 190 192 193 192 189 182 171 183 188 187 171 155 159 176 235 171 156 156 157 144 132 126 119 109 96 80 62 41 30 17 22 37 31 19 16 13 3 358 357
189 191 197 199 200 200 198 196 192 189 182 183 178 166 162 147 153 154 184 190 166 179 165 151 143 135 128 121 112 93 73 52 37 31 32 29 25 25 16 12 3 360 356
191 192 193 198 201 202 203 201 199 197 194 187 181 173 168 169 181 167 170 177 183 190 157 151 152 147 141 132 124 110 91 70 51 42 40 38 35 26 14 10 4 360 356
192 194 192 194 195 197 200 196 196 197 194 189 189 190 186 183 162 158 154 157 165 173 160 161 172 157 150 143 134 120 100 84 66 55 49 48 41 28 13 5 1 359 355
192 191 188 192 193 190 189 192 192 195 193 194 193 185 180 182 174 169 161 152 155 179 193 192 166 171 157 152 149 129 115 107 87 73 63 54 44 31 18 12 7 1 354
184 186 192 192 194 192 192 191 194 192 190 195 193 185 178 181 178 174 162 162 163 183 207 193 179 174 158 148 151 134 128 127 117 105 94 77 53 32 20 13 7 2 354
171 184 194 198 197 196 195 192 191 191 191 196 189 185 185 180 171 173 170 165 167 170 189 172 169 160 159 155 160 146 148 144 142 147 142 113 64 30 20 9 1 360 355
176 201 205 201 202 203 201 200 201 193 196 198 192 189 191 179 177 176 171 167 169 159 167 150 132 139 149 162 157 151 153 151 175 183 177 167 135 35 13 4 0 359 358
269 218 213 208 208 210 207 207 207 200 199 199 199 195 194 185 185 177 176 178 175 165 157 161 158 155 165 173 164 165 172 176 189 203 197 197 203 242 345 355 359 360 359
349 326 245 224 216 215 216 216 212 207 205 205 202 201 196 186 193 184 180 177 169 160 148 152 159 153 152 158 152 165 175 186 210 213 207 208 217 224 283 325 352 360 1
354 335 298 259 241 228 220 217 215 209 206 208 207 206 200 195 195 186 183 178 165 162 155 152 155 157 157 155 156 169 186 199 219 221 207 201 209 224 274 295 344 358 2
352 338 318 302 279 247 233 227 219 213 209 209 209 208 206 200 194 188 184 178 171 170 165 167 167 163 172 172 185 171 178 167 220 209 182 214 176 307 314 310 320 343 354
350 348 333 308 289 281 279 260 240 220 212 208 209 206 202 195 194 194 191 185 180 177 179 177 181 188 190 181 164 166 154 157 219 204 168 217 173 214 250 260 264 297 346
344 337 331 319 303 291 284 271 257 239 219 210 203 196 196 197 188 184 187 186 191 192 185 178 185 190 180 179 166 164 168 175 197 177 150 201 195 221 243 255 240 243 316
331 323 318 315 303 293 290 280 269 250 230 216 205 198 194 190 187 176 168 169 176 188 187 181 185 183 177 171 172 170 164 142 102 129 154 181 196 219 239 288 274 247 258
323 313 307 305 299 293 290 284 274 243 235 227 215 204 195 194 194 183 171 170 170 181 183 174 174 175 174 172 160 135 138 140 170 202 182 167 172 179 222 261 281 265 256
308 309 306 303 297 290 289 282 270 240 237 234 224 215 209 203 198 191 182 178 185 186 165 154 153 157 157 170 172 165 159 154 158 199 192 160 156 144 209 281 285 326 340